Вернуться в каталог

STARLINK-3285

АктивенСвязьVLEO
NORAD 50181·PAYLOAD·🇺🇸 United States

Запущен Dec 18, 2021 с Vandenberg Space Force Base

Loading…

Ближайшие Пролёты (ближайшие 24 часа)

TLE

СвежийSource: CelesTrak SupGP

Эпоха: Sep 14, 2026, 14:35 UTC

1 50181C 21125AB  26257.60812500  .00014373  00000+0  46220-3 0  2571
2 50181  53.1572 109.3291 0001276  91.6123 317.6384 15.31693842    18

Отслеживайте STARLINK-3285 в реальном времени с AllMySat

Download on the App Store